Location: Abraham Lincoln Continuation High School
(33.9711°N, 117.3662°W)
Time: 04:50:57
(UTC+00:00)

MOS 1 Rocket - Pass Details

Date: 21 September 2020
Orbit: 614 x 831 km, 97.4° (Epoch: 25 October)

Event Time Altitude Azimuth Distance (km) Brightness Sun altitude
Rises 03:17:04 0° 4° (N) 2,953 6.7 -19.1°
Reaches altitude 10° 03:19:22 10° 358° (N) 2,018 5.9 -19.6°
Maximum altitude 03:23:32 46° 286° (WNW) 839 4.2 -20.4°
Drops below altitude 10° 03:27:36 10° 213° (SSW) 1,965 5.8 -21.2°
Sets 03:29:49 0° 207° (SSW) 2,866 6.6 -21.6°
